Weather History for Sand Point, AK

Change the Weather History Date:

Thursday, October 13, 2011

  Actual Average Record
Temperature  
Mean Temperature 47 °F -  
Max Temperature 48 °F 44 °F 53 °F (1993)
Min Temperature 46 °F 38 °F 33 °F (2012)
Degree Days  
Heating Degree Days 18    
Moisture  
Dew Point 45 °F    
Average Humidity 90    
Maximum Humidity 93    
Minimum Humidity 87    
Precipitation  
Precipitation 0.00 in - - ()
Sea Level Pressure  
Sea Level Pressure 29.80 in    
Wind  
Wind Speed 17 mph (SSW)    
Max Wind Speed 45 mph    
Max Gust Speed 58 mph    
Visibility 6 miles    
Events      
Averages and records for this station are not official NWS values.
T = Trace of Precipitation, MM = Missing Value Source: NWS Daily Summary

Daily Weather History Graph

Daily Weather History Graph

Search for Another Location

Airport:

Trip Planner

Search our weather history database for the weather conditions in past years. The results will help you decide how hot, cold, wet, or windy it might be!

Date:

Astronomy

Oct. 13, 2011 Rise Set
Actual Time 9:08 AM AKDT 7:47 PM AKDT
Civil Twilight 8:31 AM AKDT 8:24 PM AKDT
Nautical Twilight 7:49 AM AKDT 9:06 PM AKDT
Astronomical Twilight 7:06 AM AKDT 9:48 PM AKDT
Moon 7:57 PM AKDT (10/13) 11:21 AM AKDT (10/13)
Length of Visible Light 11h 52m
Length of Day
10h 39m
Full, 97% of the Moon is Illuminated
Oct 13
Full
Oct 19
Last Quarter
Oct 26
New
Nov 2
First Quarter
Nov 10
Full

Hourly Weather History & Observations

Time (AKDT) Temp. Windchill Dew Point Humidity Pressure Visibility Wind Dir Wind Speed Gust Speed Precip Events Conditions
12:16 AM 48.2 °F - 44.6 °F 87% 30.05 in 10.0 mi SW 11.5 mph - N/A   Overcast
12:36 AM 48.2 °F - 44.6 °F 87% 30.05 in 10.0 mi SW 12.7 mph - N/A   Overcast
12:56 AM 48.2 °F - 44.6 °F 87% 30.05 in 10.0 mi SW 10.4 mph 18.4 mph N/A   Overcast
1:16 AM 48.2 °F - 44.6 °F 87% 30.05 in 10.0 mi SW 12.7 mph - N/A   Overcast
1:36 AM 48.2 °F - 44.6 °F 87% 30.05 in 10.0 mi WSW 9.2 mph - N/A   Overcast
1:56 AM 48.2 °F - 44.6 °F 87% 30.04 in 10.0 mi WSW 9.2 mph - N/A   Overcast
2:16 AM 48.2 °F - 44.6 °F 87% 30.03 in 10.0 mi SSW 9.2 mph - N/A   Overcast
2:36 AM 48.2 °F - 44.6 °F 87% 30.03 in 10.0 mi West 5.8 mph - N/A   Overcast
2:56 AM 48.2 °F - 44.6 °F 87% 30.02 in 10.0 mi SW 9.2 mph - N/A   Mostly Cloudy
3:16 AM 48.2 °F - 44.6 °F 87% 30.03 in 10.0 mi SW 5.8 mph - N/A   Overcast
3:36 AM 48.2 °F - 44.6 °F 87% 30.02 in 10.0 mi SSW 6.9 mph - N/A   Overcast
3:56 AM 48.2 °F - 44.6 °F 87% 30.01 in 10.0 mi SW 6.9 mph - N/A   Overcast
4:16 AM 48.2 °F - 44.6 °F 87% 30.01 in 10.0 mi WSW 6.9 mph - N/A   Overcast
4:36 AM 48.2 °F - 44.6 °F 87% 30.01 in 10.0 mi West 8.1 mph - N/A   Overcast
4:56 AM 48.2 °F - 44.6 °F 87% 30.01 in 10.0 mi WSW 8.1 mph - N/A   Overcast
5:16 AM 48.2 °F - 44.6 °F 87% 30.01 in 10.0 mi SSW 3.5 mph - N/A   Overcast
5:36 AM 48.2 °F - 44.6 °F 87% 30.01 in 10.0 mi WSW 4.6 mph - N/A   Overcast
5:56 AM 48.2 °F - 44.6 °F 87% 30.01 in 10.0 mi SSW 6.9 mph - N/A   Overcast
6:16 AM 48.2 °F - 44.6 °F 87% 30.00 in 10.0 mi Calm Calm - N/A   Overcast
6:36 AM 48.2 °F - 44.6 °F 87% 29.99 in 10.0 mi SSW 4.6 mph - N/A   Overcast
6:56 AM 48.2 °F - 44.6 °F 87% 29.99 in 10.0 mi SW 6.9 mph - N/A   Overcast
7:36 AM 48.2 °F - 44.6 °F 87% 29.98 in 9.0 mi SW 15.0 mph 19.6 mph N/A   Overcast
7:56 AM 48.2 °F - 44.6 °F 87% 29.97 in 9.0 mi SW 17.3 mph - N/A   Overcast
8:16 AM 48.2 °F - 44.6 °F 87% 29.96 in 4.0 mi SSW 12.7 mph - N/A   Overcast
8:36 AM 48.2 °F - 44.6 °F 87% 29.96 in 4.0 mi SSW 15.0 mph 23.0 mph N/A   Overcast
8:56 AM 48.2 °F - 44.6 °F 87% 29.95 in 3.0 mi SSW 18.4 mph 24.2 mph N/A   Overcast
9:16 AM 48.2 °F - 44.6 °F 87% 29.95 in 3.0 mi SSW 18.4 mph 27.6 mph N/A   Overcast
9:36 AM 48.2 °F - 46.4 °F 93% 29.94 in 4.0 mi SSW 20.7 mph 27.6 mph N/A   Overcast
9:56 AM 48.2 °F - 46.4 °F 93% 29.93 in 3.0 mi SSW 24.2 mph 28.8 mph N/A   Overcast
10:16 AM 48.2 °F - 46.4 °F 93% 29.92 in 3.0 mi SSW 24.2 mph - N/A   Overcast
10:36 AM 48.2 °F - 46.4 °F 93% 29.92 in 3.0 mi SSW 20.7 mph 25.3 mph N/A   Overcast
10:56 AM 48.2 °F - 46.4 °F 93% 29.92 in 3.0 mi SSW 20.7 mph 26.5 mph N/A   Overcast
11:16 AM 48.2 °F - 46.4 °F 93% 29.90 in 3.0 mi SSW 20.7 mph 27.6 mph N/A   Overcast
11:36 AM 48.2 °F - 46.4 °F 93% 29.89 in 9.0 mi SSW 25.3 mph - N/A   Overcast
11:56 AM 48.2 °F - 46.4 °F 93% 29.88 in 5.0 mi SSW 25.3 mph - N/A   Overcast
12:16 PM 48.2 °F - 46.4 °F 93% 29.87 in 5.0 mi SSW 24.2 mph 29.9 mph N/A   Overcast
12:36 PM 48.2 °F - 44.6 °F 87% 29.86 in 5.0 mi SSW 20.7 mph - N/A   Overcast
12:56 PM 48.2 °F - 46.4 °F 93% 29.85 in 4.0 mi SSW 21.9 mph 31.1 mph N/A   Overcast
1:16 PM 48.2 °F - 46.4 °F 93% 29.83 in 4.0 mi SSW 26.5 mph 31.1 mph N/A   Overcast
1:36 PM 48.2 °F - 46.4 °F 93% 29.82 in 5.0 mi South 25.3 mph 32.2 mph N/A   Overcast
1:56 PM 48.2 °F - 46.4 °F 93% 29.81 in 3.0 mi South 28.8 mph 32.2 mph N/A   Overcast
2:16 PM 48.2 °F - 46.4 °F 93% 29.79 in 3.0 mi South 26.5 mph 34.5 mph N/A   Overcast
2:36 PM 46.4 °F 37.5 °F 44.6 °F 93% 29.77 in 3.0 mi South 27.6 mph - N/A   Overcast
2:56 PM 48.2 °F - 46.4 °F 93% 29.74 in 3.0 mi South 32.2 mph 38.0 mph N/A   Overcast
3:16 PM 48.2 °F - 46.4 °F 93% 29.72 in 3.0 mi South 28.8 mph 39.1 mph N/A   Overcast
3:36 PM 48.2 °F - 46.4 °F 93% 29.69 in 3.0 mi South 29.9 mph 39.1 mph N/A   Overcast
3:56 PM 48.2 °F - 46.4 °F 93% 29.68 in 5.0 mi South 31.1 mph 42.6 mph N/A   Overcast
4:16 PM 48.2 °F - 46.4 °F 93% 29.64 in 5.0 mi South 26.5 mph 36.8 mph N/A   Overcast
4:36 PM 48.2 °F - 46.4 °F 93% 29.61 in 5.0 mi South 31.1 mph 35.7 mph N/A   Overcast
4:56 PM - - - N/A% 29.57 in 4.0 mi South 36.8 mph 43.7 mph N/A   Overcast
5:16 PM 48.2 °F - 46.4 °F 93% 29.57 in 4.0 mi South 29.9 mph 48.3 mph N/A   Overcast
5:36 PM - - - N/A% 29.52 in 2.0 mi South 33.4 mph 42.6 mph N/A   Overcast
5:56 PM 48.2 °F - 46.4 °F 93% 29.51 in 1.5 mi South 36.8 mph 43.7 mph N/A   Overcast
6:16 PM 48.2 °F - 46.4 °F 93% 29.47 in 1.5 mi South 36.8 mph 43.7 mph N/A   Overcast
6:36 PM - - - N/A% 29.43 in 1.5 mi South 39.1 mph 44.9 mph N/A   Overcast
6:56 PM - - - N/A% 29.40 in 1.5 mi South 38.0 mph 55.2 mph N/A   Overcast
7:16 PM - - - N/A% 29.39 in 1.0 mi South 40.3 mph 50.6 mph N/A   Overcast
7:36 PM - - - N/A% 29.38 in 1.0 mi South 36.8 mph 52.9 mph N/A   Overcast
7:56 PM - - - N/A% 29.33 in 1.0 mi South 42.6 mph 52.9 mph N/A   Overcast
8:16 PM - - - N/A% 29.30 in 1.0 mi South 44.9 mph 50.6 mph N/A   Overcast
8:36 PM - - - N/A% 29.28 in 1.0 mi South 44.9 mph 51.8 mph N/A   Overcast
8:56 PM - - - N/A% 29.26 in 1.0 mi South 43.7 mph 57.5 mph N/A   Mostly Cloudy
9:16 PM - - - N/A% 29.26 in 1.5 mi South 42.6 mph 55.2 mph N/A   Mostly Cloudy
9:36 PM - - - N/A% 29.25 in 1.5 mi South 43.7 mph 50.6 mph N/A   Mostly Cloudy
9:56 PM - - - N/A% 29.26 in 1.5 mi South 35.7 mph 47.2 mph N/A   Mostly Cloudy
10:16 PM - - - N/A% 29.25 in 2.5 mi South 35.7 mph 46.0 mph N/A   Mostly Cloudy
10:36 PM - - - N/A% 29.23 in 2.0 mi South 35.7 mph 43.7 mph N/A   Overcast
10:56 PM - - - N/A% 29.23 in 2.5 mi SSW 32.2 mph 43.7 mph N/A   Overcast
11:16 PM - - - N/A% 29.20 in 2.0 mi South 35.7 mph 41.4 mph N/A   Mostly Cloudy
11:36 PM - - - N/A% 29.18 in 3.0 mi SSW 36.8 mph 48.3 mph N/A   Mostly Cloudy
11:56 PM - - - N/A% 29.17 in 2.0 mi SSW 35.7 mph 50.6 mph N/A   Overcast